Theta_e
312 313 313 312 312 312 312 311 314 317 315 318 319 316 319 319 315 316 316 315 315 315 316 316 315 315 315 316 316 314 314 315 314 314 315 315 315 315 317 318 319 320 318 318 323 328 330 332 332 333 333 333 334 335 335 335 334 335 336 335 335 334 334 334 334 335 334 334 333 333 334 334 334 335 335 334 334 334 333 332 331 332 332 331 331 332
312 312 313 312 312 313 312 313 313 313 312 314 317 317 318 320 318 315 314 315 315 315 316 316 314 314 315 315 315 314 314 314 314 314 314 316 316 316 316 317 317 316 317 316 319 324 328 330 331 332 332 332 333 333 334 334 333 334 335 335 335 334 334 334 333 334 334 334 333 332 332 333 334 335 334 334 334 334 333 332 332 332 332 332 331 332
311 311 312 312 312 312 312 313 312 312 313 315 317 316 316 320 318 314 314 316 315 314 317 318 315 316 316 315 315 315 314 314 314 314 315 316 317 318 317 318 317 317 323 323 319 320 325 329 331 331 333 332 331 332 333 333 333 333 334 335 335 334 334 334 334 333 333 333 333 332 331 331 333 334 333 333 333 333 333 333 333 332 332 332 332 332
312 312 311 312 312 311 311 312 312 312 314 318 319 316 317 318 317 315 314 314 314 314 315 317 316 316 315 315 317 315 314 314 313 314 314 316 317 318 318 318 318 319 327 328 322 321 322 326 330 331 332 333 332 332 333 333 333 334 334 334 334 334 334 333 333 333 332 332 333 333 331 329 331 331 332 332 332 332 332 332 332 332 332 332 332 332
314 314 312 313 313 311 312 312 313 313 314 321 325 322 322 319 318 318 316 315 314 313 315 314 313 318 318 313 315 315 313 313 313 314 314 315 316 317 318 318 317 320 326 327 325 322 320 323 328 330 332 333 333 333 334 334 334 335 335 334 334 334 334 333 333 333 332 333 333 333 332 331 331 331 331 331 331 332 332 332 332 332 332 331 331 331
313 313 313 314 314 313 314 314 316 316 315 318 323 325 326 322 320 321 319 319 315 313 317 313 312 328 332 319 314 312 312 313 313 315 314 314 316 316 317 318 319 320 323 325 323 319 317 320 324 327 329 330 331 333 334 335 334 334 335 334 334 334 334 333 333 333 332 332 333 332 332 332 331 331 331 331 331 332 332 332 332 331 331 330 330 331
314 313 314 315 317 318 318 317 318 320 316 314 317 322 324 324 324 323 320 322 319 314 315 313 312 324 327 322 320 317 313 313 312 314 316 315 317 319 318 321 324 323 323 322 319 316 314 316 318 320 324 327 329 331 331 333 333 333 334 334 334 334 334 334 333 332 333 332 332 332 331 331 331 331 331 331 331 331 331 332 332 332 331 331 331 331
314 313 315 317 318 318 318 317 317 319 317 316 320 324 324 324 325 325 321 324 324 318 317 319 316 316 317 319 323 320 314 314 314 315 318 317 318 320 321 323 325 325 325 322 321 319 313 312 313 315 319 323 325 327 328 329 331 331 332 333 333 334 334 334 333 332 332 332 332 332 331 330 331 330 330 330 330 330 330 331 332 332 331 331 330 329
315 316 317 318 318 318 318 320 321 319 317 320 324 326 325 324 328 328 325 324 322 317 321 325 317 313 323 329 325 318 314 314 316 316 318 319 319 319 320 322 325 327 329 328 328 322 313 311 313 313 314 316 318 320 323 325 327 328 329 330 331 332 333 333 334 333 332 332 332 331 331 330 330 330 330 330 329 328 328 328 329 328 328 328 327 327
316 315 318 320 318 319 321 322 326 323 317 321 325 326 327 330 330 327 328 329 318 314 326 331 319 313 323 331 323 314 314 317 318 316 315 316 317 318 321 324 327 329 328 328 325 317 312 312 312 312 313 313 313 314 315 318 321 325 327 327 329 331 332 332 333 333 332 331 332 331 331 330 330 330 329 328 327 327 327 327 326 326 326 326 326 326
314 311 315 320 318 321 320 317 322 324 320 322 325 326 324 328 333 333 336 332 317 320 336 334 323 313 316 326 324 315 318 320 317 316 317 319 320 322 327 328 328 329 326 325 322 314 312 314 313 313 313 313 313 312 312 312 315 321 324 326 328 328 330 331 331 332 332 331 331 331 331 330 330 329 328 326 326 326 326 326 326 325 325 325 325 324
317 313 314 317 315 318 320 317 319 321 324 327 328 325 319 323 335 337 333 324 317 328 335 326 318 315 315 324 324 318 318 318 316 316 321 325 325 325 328 327 327 331 329 327 325 319 313 313 313 314 313 313 313 312 312 312 312 316 320 324 327 327 328 329 329 330 331 330 330 330 330 330 329 327 326 326 325 325 325 325 324 324 323 322 321 321
320 318 316 315 313 316 320 319 317 318 324 327 323 319 317 320 326 326 325 324 324 326 322 315 317 318 318 320 319 318 318 316 316 319 324 326 325 325 326 326 326 328 329 326 325 323 316 311 312 313 313 314 313 312 312 312 311 313 316 320 324 326 326 327 328 329 329 329 329 329 328 327 327 326 325 325 324 324 324 323 322 322 321 320 319 319
321 319 316 315 313 314 318 317 315 318 321 320 316 316 321 323 318 316 321 323 322 322 316 312 315 319 319 318 317 318 315 314 318 324 327 324 325 327 327 327 325 324 327 327 325 326 320 311 311 313 314 313 313 313 312 312 311 311 313 318 321 323 324 325 326 326 327 327 326 326 326 325 325 324 324 324 323 323 322 321 320 319 319 318 318 317
321 318 316 316 314 314 318 317 317 320 319 319 319 318 322 326 323 320 323 323 320 321 316 310 315 323 321 316 318 316 313 316 321 325 323 320 323 327 326 326 326 324 326 326 324 323 317 311 312 314 314 315 315 314 313 312 312 311 313 317 319 320 322 323 323 324 325 324 324 324 324 324 324 323 323 322 321 321 320 319 319 318 317 317 316 316
316 316 318 318 315 315 318 319 319 318 316 319 321 319 318 324 330 328 325 329 327 320 317 314 319 327 319 313 316 314 313 315 316 318 320 320 322 324 325 325 325 325 324 323 323 321 314 311 313 315 314 316 316 316 315 313 314 314 315 317 318 320 321 321 322 323 323 322 323 323 323 323 323 322 321 320 319 319 319 319 318 317 316 316 315 314
313 315 317 317 315 314 316 317 319 317 316 318 318 321 322 321 327 325 316 318 318 317 321 317 318 323 316 314 318 313 313 315 311 313 318 320 321 321 324 324 323 325 323 321 322 319 312 309 311 313 314 316 316 317 317 317 317 317 317 318 319 320 321 321 322 322 322 322 321 321 321 320 320 319 318 318 318 319 318 317 315 314 313 312 311 310
316 316 315 316 316 313 313 316 318 317 317 319 318 321 321 316 321 324 317 314 313 317 324 317 315 321 316 318 321 313 312 315 312 313 314 315 320 321 323 324 323 323 321 320 319 314 308 307 309 311 312 314 314 314 316 318 318 318 318 319 319 320 320 320 320 320 320 319 319 318 318 317 317 317 317 317 316 315 314 312 310 310 309 308 307 307
320 319 314 314 316 314 314 317 318 315 313 318 320 319 320 318 320 322 318 318 315 315 322 319 316 319 318 321 324 314 315 317 313 313 312 313 319 321 323 324 321 321 319 318 317 314 308 305 307 309 310 311 312 312 314 317 318 318 318 317 317 318 319 318 318 318 318 317 317 317 317 317 317 316 315 313 312 310 309 308 308 307 307 306 306 306
321 322 317 314 314 315 316 316 318 316 313 315 317 314 317 320 323 321 316 320 322 319 322 321 316 321 325 324 325 318 320 322 314 314 313 312 316 319 322 323 321 320 319 316 316 315 308 304 306 308 308 309 310 310 312 315 317 317 317 317 316 316 317 318 318 317 317 317 316 316 315 314 313 312 310 309 308 308 307 306 306 306 306 305 305 305
315 321 322 315 313 314 316 316 317 316 314 315 316 313 314 315 317 319 317 322 327 322 323 319 317 332 336 323 320 317 317 321 316 314 314 311 313 318 320 321 319 318 318 315 314 313 306 303 306 307 307 308 308 309 310 312 313 314 315 315 315 316 316 316 316 315 314 314 313 312 310 310 309 308 307 306 306 306 306 305 306 305 305 304 303 302
316 318 321 317 315 317 318 317 316 317 315 314 314 314 316 314 316 317 316 320 322 319 326 323 318 334 336 318 316 315 313 318 315 313 316 313 312 318 320 319 318 318 317 314 313 310 303 302 305 306 306 307 307 307 308 309 310 310 311 312 312 313 313 312 312 312 311 309 309 308 307 307 306 306 306 306 306 306 305 305 304 303 301 299 298 296
321 320 320 318 317 318 318 316 314 317 318 316 314 317 317 315 318 319 317 322 319 314 323 323 315 327 333 319 316 317 315 319 316 314 317 314 312 318 320 317 316 316 315 313 310 306 302 303 305 305 305 306 306 306 306 307 308 308 308 309 309 310 310 309 309 308 307 307 306 305 305 305 305 305 305 305 305 304 303 301 299 297 296 294 293 293
320 320 320 318 316 317 319 317 314 314 317 316 316 318 318 315 316 319 322 326 324 317 318 316 314 326 335 324 320 319 316 317 315 313 317 319 318 319 320 318 316 316 314 312 310 304 301 303 304 304 304 304 305 305 305 305 306 306 306 307 307 307 307 307 307 306 305 305 304 304 304 304 305 305 304 303 301 299 297 295 294 293 293 293 293 293
317 319 320 319 317 318 320 319 316 315 316 318 318 317 317 317 316 317 319 317 319 324 322 317 317 324 330 326 321 320 318 315 314 313 316 323 324 321 319 317 316 316 314 312 310 307 304 303 303 303 304 303 304 304 304 304 305 305 305 305 305 305 305 305 304 304 304 304 303 304 304 304 303 301 299 297 296 294 293 293 293 293 292 292 292 292
320 320 319 320 319 317 318 317 317 318 316 317 319 317 317 319 317 318 320 314 317 326 322 318 319 318 320 322 319 319 320 317 316 314 312 318 322 319 317 317 316 315 313 311 310 309 307 304 302 302 303 303 303 303 303 303 304 304 304 304 304 304 303 303 303 303 303 304 304 302 300 299 297 296 294 293 293 293 292 292 292 292 292 292 292 292
325 320 316 317 316 315 317 317 317 319 317 315 318 319 318 318 318 320 322 318 320 325 322 322 323 315 314 318 317 319 321 317 316 315 311 314 319 318 316 316 315 314 312 310 309 308 308 306 303 302 302 302 302 302 302 302 303 303 303 302 302 302 302 302 303 303 303 302 300 297 295 294 293 293 293 293 292 292 292 292 292 292 291 291 291 291
323 317 316 318 316 315 319 320 317 317 317 316 317 319 319 319 319 319 319 316 318 319 317 321 323 316 313 314 316 319 321 318 318 316 312 314 318 318 316 316 316 314 312 310 309 308 308 308 304 301 301 302 301 301 302 302 302 302 302 302 302 302 302 302 302 301 300 298 295 293 293 292 292 292 292 292 292 292 292 291 291 291 291 291 291 291
319 315 318 317 315 317 319 320 318 317 318 317 316 318 318 318 319 319 317 316 317 316 314 315 318 316 313 313 314 317 318 320 320 315 312 314 319 318 317 317 316 314 313 311 310 308 308 308 304 300 300 300 300 301 301 301 301 302 301 301 300 300 300 300 299 297 295 294 293 292 292 292 292 292 292 292 291 291 291 291 291 291 291 291 291 291
315 317 320 315 313 316 318 321 321 319 318 318 317 317 316 317 318 317 316 316 316 316 314 313 315 315 313 312 315 318 319 318 317 314 313 317 322 320 317 317 316 314 313 311 309 307 308 306 302 299 300 300 299 300 300 300 300 301 300 299 298 297 296 296 296 294 293 293 292 292 292 292 291 291 291 291 291 291 291 291 291 291 290 290 290 290
314 319 318 314 313 315 317 322 323 321 320 318 318 318 316 316 317 316 316 316 315 315 314 314 315 314 312 313 316 321 320 314 312 314 315 315 318 319 317 316 315 313 312 311 309 308 307 305 301 299 299 299 299 299 299 299 299 299 299 298 296 295 294 294 293 293 292 292 291 291 291 291 291 291 291 291 291 290 290 290 290 290 290 290 290 289
315 317 316 315 316 316 317 319 320 320 321 318 319 320 318 316 316 315 315 314 314 315 315 315 316 313 312 314 316 318 319 315 314 318 317 313 315 319 318 317 315 314 312 310 309 308 307 306 302 299 299 299 299 299 299 298 298 298 297 296 294 293 293 293 293 292 292 291 291 291 291 290 291 291 290 290 290 290 290 290 290 290 290 290 289 289
317 318 317 318 318 317 317 318 317 318 319 317 317 319 317 315 315 314 315 315 314 315 315 315 314 311 312 316 315 313 315 317 317 318 317 314 315 317 317 316 315 313 312 311 310 308 307 305 302 300 300 299 299 299 298 298 298 297 296 295 293 292 292 292 292 292 291 291 290 290 290 290 290 290 290 290 290 290 289 289 289 289 289 289 289 289
316 318 319 317 316 317 316 317 318 318 317 315 315 317 317 316 316 315 315 315 314 313 313 313 312 312 313 316 314 312 314 316 317 317 316 314 315 316 316 315 315 313 312 310 310 309 306 302 301 301 300 299 299 299 298 297 297 296 295 293 292 292 292 291 291 291 290 290 290 290 290 290 290 290 289 289 289 289 289 289 289 289 289 289 289 289
315 318 317 315 316 318 316 316 318 318 316 315 317 319 317 315 316 317 316 314 314 313 314 313 313 312 313 315 315 312 313 315 316 317 315 312 313 317 318 316 314 313 312 311 310 309 305 301 301 300 300 299 300 298 297 296 296 295 293 292 291 291 291 291 291 290 290 289 289 289 289 289 289 289 289 289 289 289 289 289 289 289 289 288 288 288
315 316 316 315 316 317 315 315 317 317 316 315 318 318 316 314 315 316 316 316 315 315 315 314 313 312 312 313 314 314 316 316 314 315 314 312 312 315 317 317 315 313 312 311 309 307 304 302 302 300 299 299 299 297 296 295 294 293 292 291 291 291 291 290 290 289 289 289 289 289 289 289 289 289 288 288 288 288 288 288 288 288 288 288 287 288
312 314 316 314 315 318 316 315 318 319 316 315 316 315 313 314 314 314 315 316 314 314 315 314 313 312 313 313 313 316 317 315 313 315 316 314 313 314 316 316 314 312 310 308 307 306 304 303 302 300 299 299 297 296 295 294 293 293 291 291 290 290 290 290 289 289 289 289 288 288 288 289 289 288 288 288 288 288 288 288 288 288 288 287 287 287
310 314 317 314 316 320 319 317 318 318 315 313 315 315 313 313 315 315 314 314 312 312 313 313 313 313 313 314 316 317 315 313 314 315 316 317 317 315 315 313 308 306 307 305 305 305 304 302 301 300 299 298 296 295 294 293 293 292 291 290 290 290 290 289 289 289 289 288 288 288 288 288 288 288 288 288 288 288 287 287 287 287 287 287 287 287
311 313 315 314 316 318 317 317 317 315 315 314 315 318 317 316 316 315 315 315 313 312 313 313 313 313 312 314 318 318 315 315 315 312 312 317 318 313 312 312 307 303 305 306 305 304 302 301 300 299 297 297 295 294 294 293 292 291 290 290 290 289 289 289 288 288 288 288 288 288 288 288 288 288 288 288 287 287 287 287 287 287 287 287 287 287
313 314 314 314 315 315 314 315 315 313 314 317 319 319 316 314 316 318 317 316 313 314 316 314 312 313 313 315 318 317 315 314 313 312 316 319 317 311 308 311 309 303 302 303 303 302 301 300 298 297 296 296 295 294 293 292 291 290 289 289 289 288 288 288 288 288 288 288 287 288 287 287 287 287 287 287 287 287 287 287 286 287 286 286 286 286
315 316 315 312 313 315 315 315 315 314 315 321 324 319 313 313 315 316 316 316 317 318 318 314 313 314 313 315 316 313 312 314 315 319 320 318 318 314 304 301 302 300 300 301 301 300 299 298 297 296 295 295 294 293 292 291 290 289 288 288 287 287 287 287 287 287 287 287 287 287 287 287 287 287 287 287 286 286 286 286 286 286 286 286 286 285
316 316 316 313 312 314 314 315 316 316 317 321 319 313 310 313 316 316 318 320 324 324 318 312 315 316 313 314 316 311 312 319 321 321 319 316 319 317 304 297 298 297 297 298 298 297 297 295 295 295 294 293 293 292 291 290 289 288 287 286 286 287 287 287 287 287 287 287 286 287 286 286 286 286 286 286 286 286 286 286 286 286 286 285 284 284
314 315 316 314 313 314 314 314 314 314 314 315 314 311 311 315 320 324 323 320 322 329 326 317 316 317 313 313 315 312 313 319 319 317 316 313 313 311 303 298 299 296 294 295 295 295 295 294 293 293 292 292 291 290 290 289 288 287 286 285 285 286 286 286 286 286 286 286 286 286 286 286 286 286 286 286 286 286 286 286 285 285 284 283 283 283
313 314 315 314 313 314 314 313 315 317 315 312 314 314 312 315 323 327 321 315 318 326 329 323 319 318 316 315 315 314 316 320 318 315 314 310 306 304 300 296 295 293 293 294 294 293 294 292 291 291 291 290 290 289 289 289 287 285 284 285 286 286 286 286 286 286 286 286 286 286 285 285 286 285 285 285 286 286 285 285 284 282 281 281 282 283
311 312 316 316 313 314 315 313 316 320 317 312 315 316 313 314 321 324 323 323 324 322 321 321 320 320 318 319 320 317 317 318 315 311 310 308 303 300 298 294 292 292 292 292 291 292 292 291 290 289 289 289 289 289 288 288 287 286 285 285 286 286 286 286 285 285 286 285 285 285 285 285 285 285 285 285 285 285 284 283 282 281 281 282 282 283
313 313 316 316 314 314 315 314 313 315 315 314 314 314 314 315 318 320 324 326 323 320 318 317 320 322 318 317 320 319 315 313 311 307 304 303 300 296 295 292 291 291 291 289 289 289 289 288 288 288 288 288 288 288 288 287 288 287 287 286 286 286 286 286 285 285 285 285 285 285 285 285 284 284 284 284 284 283 283 282 281 281 281 282 282 281
314 313 313 315 315 313 313 313 312 313 317 319 316 312 311 313 314 317 322 323 320 318 316 314 316 319 316 313 319 321 315 311 310 307 302 300 300 298 295 292 289 289 289 288 287 287 286 286 286 285 285 285 286 287 286 285 286 287 287 287 286 285 285 285 285 285 285 284 284 284 284 284 283 283 284 283 282 282 281 281 281 281 281 281 280 280
314 311 313 316 315 313 312 314 314 313 314 315 316 315 314 315 315 313 314 315 314 313 312 310 311 314 314 313 317 319 315 311 310 308 303 300 298 296 293 290 288 288 288 286 285 285 285 284 284 284 284 283 284 284 284 283 284 285 286 286 285 285 285 285 285 285 284 284 284 283 283 283 283 283 282 282 281 281 280 280 280 280 280 280 279 279
312 311 315 317 314 311 311 313 312 312 311 311 313 315 313 313 315 311 307 308 310 310 308 306 305 308 312 314 314 315 315 310 306 306 303 298 296 294 291 289 288 287 286 285 284 285 285 284 283 283 283 283 283 283 282 282 283 284 284 284 284 284 284 284 284 284 284 283 283 282 282 283 283 282 281 281 280 280 280 280 280 280 279 279 278 278
311 313 315 315 313 311 313 314 312 313 315 314 313 313 310 308 310 310 307 307 309 308 308 307 305 304 306 306 306 312 319 313 303 301 301 297 294 292 289 287 287 286 285 284 284 283 284 283 283 283 282 282 282 282 281 282 282 282 283 284 284 284 284 284 283 283 282 282 282 282 283 282 282 281 281 281 280 279 279 279 279 279 279 278 278 277
313 316 314 313 313 312 313 315 313 315 317 312 306 307 307 306 310 313 312 310 309 308 308 310 309 308 306 302 298 303 315 314 302 298 300 297 292 290 288 287 287 286 284 284 283 282 282 282 281 281 281 280 280 280 280 281 282 282 282 283 283 283 283 283 283 282 282 282 282 283 282 282 281 281 280 280 280 280 280 279 278 278 278 277 277 276
Wind_Speed
5 4 5 6 6 6 6 7 8 8 6 5 5 4 5 5 3 3 2 5 1 5 5 7 7 8 7 8 9 6 5 6 7 7 8 7 7 8 9 9 10 10 10 16 24 26 28 31 31 31 32 31 31 31 33 33 33 32 32 32 31 31 30 30 31 31 30 29 28 28 28 28 26 25 24 24 23 22 21 20 20 20 20 19 19 20
5 7 8 8 8 7 8 8 7 8 7 4 5 5 5 4 3 3 2 4 3 3 4 3 4 9 8 9 8 5 6 8 9 8 9 10 8 7 9 10 10 8 6 11 18 23 27 30 31 31 31 32 32 32 33 34 34 34 33 34 33 32 32 32 32 32 32 31 30 29 30 30 28 27 26 25 24 23 22 21 21 20 19 19 18 18
6 7 8 9 9 7 7 8 8 8 6 4 5 6 5 4 2 2 3 4 4 2 3 2 2 9 9 8 8 6 8 8 10 11 10 11 9 8 9 10 9 7 6 8 11 18 25 29 31 31 31 33 34 34 34 34 34 34 34 35 34 34 33 33 32 32 32 32 30 28 27 27 27 26 26 26 24 22 22 21 21 21 20 19 18 18
5 6 8 8 8 9 7 7 9 7 4 3 4 5 4 4 3 1 3 3 3 2 1 1 1 7 7 5 8 8 9 7 8 12 11 10 11 11 11 10 9 9 8 9 8 12 20 25 28 30 31 33 33 33 34 34 34 34 35 36 36 36 35 34 33 32 31 30 28 27 24 22 23 24 24 23 22 22 22 21 21 21 20 19 18 18
5 4 7 7 7 10 7 6 8 6 4 3 4 5 4 4 4 2 2 1 3 3 1 3 4 6 5 6 9 8 7 6 7 10 10 9 10 10 10 9 9 10 10 10 9 9 15 21 26 30 32 32 32 33 34 35 36 36 36 36 37 37 36 35 34 32 31 29 27 27 24 21 22 23 22 23 23 23 23 22 21 20 21 20 18 18
6 4 6 8 7 9 7 6 7 8 4 3 2 4 6 8 5 5 5 5 4 3 3 2 1 6 5 5 9 7 5 8 7 9 11 11 10 8 8 9 9 9 9 9 10 10 14 19 24 27 29 30 32 34 35 36 36 36 36 36 36 36 36 36 34 33 32 31 29 28 27 26 25 25 25 26 26 25 24 23 21 20 20 19 18 19
4 3 5 8 8 8 7 4 6 7 6 3 4 2 6 8 7 8 7 4 2 3 3 2 4 5 6 4 8 6 6 10 8 8 11 10 9 8 8 8 8 8 7 7 8 9 12 17 19 22 25 29 32 34 34 34 34 34 34 35 35 34 35 34 34 33 32 32 31 31 30 30 29 28 26 25 24 23 23 22 21 19 18 17 17 17
3 5 5 7 6 7 7 4 5 7 7 4 3 4 9 10 8 8 8 4 3 3 3 4 3 3 4 5 8 4 4 7 7 9 10 8 8 8 8 7 7 7 7 7 7 7 11 16 19 22 26 29 30 30 29 30 31 32 33 33 34 33 32 32 32 33 33 33 33 32 32 30 29 28 24 21 19 18 18 18 17 16 15 15 14 13
2 7 8 8 5 4 6 4 5 7 6 5 4 7 8 8 8 7 6 4 1 2 2 5 1 2 5 6 6 3 2 4 7 9 10 9 9 8 8 8 7 6 6 6 7 7 9 13 17 20 23 25 25 26 26 27 28 29 30 31 32 32 31 30 31 32 33 33 32 32 33 31 28 25 21 18 16 14 13 13 12 12 12 13 12 11
1 5 6 8 6 5 4 2 3 6 4 4 4 7 5 5 5 5 5 4 3 2 4 7 2 2 5 6 4 2 1 5 7 8 8 9 8 8 8 6 5 4 4 4 4 5 6 9 12 13 16 18 20 22 23 24 23 24 26 28 30 31 30 30 29 30 32 32 31 31 31 29 26 22 19 16 14 13 12 12 12 11 11 11 11 11
2 1 1 3 4 5 5 2 1 3 5 5 6 7 7 6 5 4 3 4 3 2 6 7 3 3 3 5 4 4 4 6 7 6 7 6 5 6 6 6 6 5 4 3 2 3 5 7 8 10 12 14 16 17 19 21 22 22 23 25 27 29 29 29 28 29 31 31 29 28 27 26 24 22 19 16 14 12 12 13 13 13 12 12 12 12
5 3 2 1 1 4 5 4 3 2 5 6 5 5 4 4 5 5 4 3 2 5 6 4 1 3 3 5 5 5 6 6 7 6 7 7 6 6 5 5 5 5 5 4 3 4 5 6 7 9 12 13 14 16 17 20 22 22 22 23 25 26 26 28 27 27 28 28 26 25 24 23 21 20 18 17 14 12 12 12 12 12 11 9 7 7
4 3 3 4 2 3 6 4 3 4 4 5 5 6 5 2 3 2 3 1 2 5 4 2 1 2 5 7 8 9 10 8 7 7 7 8 7 6 6 6 5 5 5 5 5 5 5 6 8 10 12 12 14 16 17 20 22 22 23 23 25 25 25 26 26 25 25 25 25 23 22 20 18 17 17 16 14 12 11 10 8 7 5 4 2 3
2 5 4 2 2 1 5 6 3 1 1 4 6 6 5 3 3 1 4 2 3 5 3 2 1 2 4 6 10 13 14 10 7 7 7 8 8 8 7 6 5 5 5 5 5 5 5 7 9 11 12 13 14 15 17 19 22 23 23 24 25 25 24 25 24 24 23 22 21 20 19 17 17 16 15 14 13 11 9 8 7 7 6 6 5 5
4 2 3 2 1 1 2 3 4 6 5 4 5 6 6 5 4 4 4 2 4 3 3 3 1 3 3 4 7 10 9 4 3 4 3 5 5 6 5 5 5 4 4 5 5 5 5 8 11 12 12 13 14 15 16 18 20 22 23 23 23 23 22 23 22 22 22 19 18 18 18 17 16 16 15 13 11 10 9 9 9 10 9 8 6 5
6 3 3 2 2 1 3 2 1 6 4 3 3 6 4 5 5 3 4 6 5 1 1 2 2 4 4 6 8 4 3 3 1 1 4 5 3 5 5 4 5 5 5 5 5 4 5 8 11 12 12 13 14 14 15 18 20 21 22 22 22 21 21 21 20 21 21 20 19 19 19 19 17 16 15 13 12 11 11 10 10 10 8 7 6 5
5 2 4 3 2 1 2 2 1 3 3 1 3 4 5 4 7 5 2 2 4 2 3 2 3 5 3 6 8 1 1 2 2 1 3 5 4 5 5 5 5 5 5 5 5 5 6 8 10 11 12 13 13 13 14 17 19 20 22 23 22 21 21 21 22 22 22 21 20 19 18 18 17 16 15 14 14 13 12 11 10 9 8 7 5 4
5 1 4 1 1 2 1 1 3 2 3 4 3 5 3 2 4 4 2 2 3 2 4 1 4 4 2 4 6 2 3 7 6 5 5 5 5 5 6 6 6 5 5 5 5 5 7 9 11 12 13 13 13 12 13 16 19 19 21 22 22 22 22 22 22 22 21 20 20 18 17 17 17 17 16 15 14 13 12 11 10 9 8 7 7 8
5 3 2 1 1 2 2 2 2 3 1 4 3 3 4 3 2 2 3 1 1 3 4 3 4 3 4 5 3 2 7 9 9 7 7 7 7 7 6 6 6 5 5 5 5 5 6 9 12 13 14 14 14 14 15 18 19 20 21 21 21 22 21 21 21 21 21 20 21 20 19 19 18 17 16 14 13 13 13 13 12 12 12 12 13 13
4 4 2 2 1 1 2 1 4 2 1 2 1 1 2 2 4 3 3 3 3 3 4 3 2 3 6 6 5 8 10 11 10 8 8 9 8 8 7 7 7 7 6 6 6 5 5 9 12 14 15 15 15 16 17 20 21 21 22 22 23 23 22 23 23 23 23 22 22 21 20 19 18 17 16 15 15 16 16 16 16 16 16 17 17 16
3 4 3 1 3 1 2 2 5 7 4 2 2 3 2 0 2 2 1 3 4 3 3 2 2 5 6 5 7 10 10 9 9 9 9 10 8 8 8 8 7 7 7 6 6 5 6 10 13 14 16 16 17 17 18 20 22 23 24 24 25 25 25 25 24 24 23 22 21 21 20 20 19 19 18 18 19 19 20 19 19 19 19 19 19 18
2 3 5 2 1 3 3 4 2 4 5 5 4 6 6 4 4 3 3 2 2 3 4 4 3 7 6 4 6 8 7 7 8 9 9 9 9 9 8 8 8 7 7 6 6 6 7 11 14 15 16 17 18 18 19 21 22 23 24 24 25 25 25 25 25 24 24 23 23 22 23 23 22 21 21 22 22 22 22 22 21 20 19 20 19 18
4 4 5 2 3 4 5 4 2 3 1 2 2 4 5 4 5 5 5 3 2 2 2 3 3 7 6 4 5 5 5 6 6 7 8 7 7 8 8 8 7 6 6 6 6 7 9 13 15 16 17 17 18 18 19 21 22 23 24 24 25 25 26 25 25 25 25 26 26 25 25 25 24 24 24 25 25 24 24 23 21 20 19 20 19 18
4 4 4 2 1 2 5 4 3 2 1 2 3 3 4 3 3 5 5 4 3 3 3 2 4 7 6 4 4 5 5 5 4 5 7 6 5 7 8 7 7 6 6 6 6 7 10 13 14 16 16 17 18 19 20 21 22 23 24 25 26 26 26 26 27 27 28 29 28 28 28 28 27 27 26 26 26 25 24 23 21 20 19 19 18 17
2 3 4 4 2 3 4 3 3 2 2 2 3 2 3 3 4 3 2 2 2 4 6 5 5 6 5 4 3 4 5 5 5 4 4 6 6 6 7 6 7 7 7 7 7 7 9 10 12 14 15 17 18 19 20 22 23 24 24 25 26 27 28 28 29 31 31 31 31 30 30 29 28 28 27 27 26 24 23 22 21 20 19 18 17 17
4 5 4 6 6 5 5 4 4 4 3 2 2 3 4 5 6 5 2 2 3 4 5 5 5 6 6 6 6 6 5 4 6 6 4 4 5 6 6 7 7 7 7 8 7 7 7 8 10 13 15 16 18 20 21 23 23 24 25 26 27 29 30 31 32 33 33 33 33 32 31 30 29 28 27 26 25 24 22 21 20 19 18 17 16 16
4 3 5 8 10 10 7 4 5 9 6 5 5 6 7 7 7 6 3 4 5 3 3 5 7 8 9 7 6 6 5 5 6 5 5 5 5 6 6 6 6 6 7 7 7 7 7 8 9 13 16 17 19 20 22 24 25 26 27 27 28 30 32 33 33 33 33 33 33 33 31 30 28 28 27 25 24 23 21 20 19 18 18 16 15 15
4 4 6 9 11 9 7 6 8 11 9 10 9 8 9 8 8 8 7 8 7 4 6 8 8 11 13 10 7 8 7 6 6 7 7 6 5 5 5 6 6 6 6 7 8 8 8 8 8 12 16 18 20 21 22 24 25 27 28 29 29 31 32 33 34 34 34 34 34 32 31 29 28 26 25 24 23 22 20 19 18 17 16 15 14 15
5 6 6 8 9 6 8 8 10 10 8 10 11 11 11 10 10 11 12 12 9 7 11 14 14 16 16 11 9 10 8 7 8 8 6 4 5 6 6 7 8 8 8 9 9 9 9 8 8 12 17 20 22 23 24 25 26 27 28 29 30 31 32 33 34 35 34 34 33 32 30 29 27 26 25 23 22 21 20 18 17 16 15 14 14 15
4 5 4 7 7 5 6 8 10 9 8 7 10 12 12 12 13 14 15 16 14 13 16 17 15 15 15 10 8 8 8 7 4 3 5 6 7 8 9 9 9 9 10 11 10 9 9 9 10 14 18 20 23 25 26 27 27 28 29 29 30 31 32 34 35 35 34 33 32 31 29 28 27 25 24 22 21 20 19 17 16 15 14 14 14 14
2 3 3 6 5 4 6 8 8 9 9 7 7 10 11 12 14 16 16 16 12 12 15 13 10 14 13 6 5 7 6 3 3 4 7 9 8 9 9 9 10 11 11 11 10 9 9 9 11 15 18 21 24 27 28 28 28 29 29 30 31 32 32 34 35 34 34 33 31 30 29 27 26 24 23 21 20 19 18 16 15 14 14 14 14 14
2 2 2 5 4 5 6 8 7 4 4 1 5 9 13 14 14 15 14 12 10 11 13 11 10 14 8 4 5 9 5 6 6 8 8 7 7 10 11 11 11 12 12 11 10 11 11 11 13 17 20 24 27 28 29 30 31 30 31 32 32 33 33 33 34 34 33 32 31 29 28 26 25 23 21 20 19 18 17 15 14 14 13 12 13 12
5 5 3 5 6 5 4 8 6 6 5 4 11 15 18 16 13 10 9 11 13 13 11 11 14 13 3 5 9 10 6 7 9 9 8 8 8 10 11 12 13 12 12 12 12 13 13 13 16 21 24 26 28 29 31 33 34 33 33 34 33 33 33 33 33 33 32 31 30 28 27 25 24 23 21 19 17 16 16 14 13 13 12 11 12 11
6 7 4 5 4 3 2 7 6 3 6 12 10 10 14 13 13 12 13 16 17 14 11 11 13 10 4 7 12 11 7 8 10 9 9 8 8 9 10 11 11 11 11 12 12 12 12 15 19 22 25 27 28 30 32 33 34 34 34 35 34 33 33 33 33 32 31 30 28 27 26 24 23 22 20 18 16 15 14 13 12 12 11 10 10 11
7 6 4 4 3 2 4 8 5 7 13 9 0 5 10 12 14 16 16 16 14 12 12 13 15 12 7 8 10 10 7 8 8 9 10 8 7 9 10 11 12 12 11 11 11 11 13 18 22 23 26 29 30 32 32 33 34 34 34 35 34 33 33 33 32 31 30 29 27 26 24 23 21 20 19 17 15 14 13 12 11 11 10 10 10 10
9 6 4 3 3 3 4 6 7 8 7 4 2 5 8 8 10 11 11 12 9 9 11 15 19 17 11 8 8 7 6 6 5 8 9 9 8 9 10 12 13 12 12 13 15 17 21 27 29 30 31 32 33 34 34 34 35 35 35 34 34 33 33 32 32 30 29 28 26 25 24 22 20 19 17 15 14 13 12 11 11 10 9 9 9 10
9 7 4 3 3 3 4 4 3 4 6 7 9 7 7 7 8 8 8 12 12 12 13 16 19 17 11 8 8 6 4 3 5 7 8 9 9 10 11 13 14 15 15 18 21 23 26 30 30 31 32 33 34 35 35 36 36 36 35 34 33 33 32 32 31 30 29 27 26 24 23 21 19 18 16 14 12 12 11 10 9 9 8 8 9 10
7 6 6 5 3 4 5 1 1 2 8 11 6 4 8 9 9 10 7 11 14 14 14 14 16 16 11 7 7 5 2 3 7 9 8 9 10 12 13 13 13 13 14 15 17 19 23 27 29 32 34 34 34 34 37 38 38 37 36 34 34 33 32 31 31 30 29 27 25 24 22 20 18 17 15 13 11 11 10 9 8 8 8 8 9 11
5 2 5 6 3 3 6 4 4 6 11 9 4 5 7 10 10 10 6 11 12 9 10 11 14 16 10 7 7 6 5 5 10 9 7 9 10 11 11 10 7 7 10 15 20 23 27 30 31 32 34 35 35 36 39 40 39 38 37 35 34 33 31 31 31 30 29 27 25 23 21 20 18 15 14 12 11 10 9 8 8 8 8 9 10 11
5 3 4 6 5 5 6 5 4 5 9 6 7 7 8 12 14 11 4 10 7 8 11 13 14 14 10 9 8 7 7 9 10 7 5 7 6 6 7 7 6 7 11 15 19 25 30 33 34 34 35 36 38 39 40 40 38 36 35 34 33 32 31 31 31 29 28 26 24 23 21 19 17 15 13 11 10 9 8 7 7 8 8 9 10 11
2 2 3 6 7 6 6 5 4 5 7 7 7 7 9 12 11 8 8 8 6 9 10 12 12 12 10 9 7 7 10 10 6 3 1 3 4 3 2 4 7 9 13 17 21 26 30 32 34 35 35 36 39 40 40 39 36 33 33 33 32 31 31 31 30 28 27 25 23 22 20 18 16 14 12 11 9 9 8 8 7 7 7 8 10 11
3 2 1 4 6 4 4 4 3 7 6 7 6 5 9 9 6 8 8 4 5 7 7 7 10 11 9 9 9 9 8 4 1 1 1 3 5 4 4 8 10 10 12 17 22 27 29 27 27 29 30 33 38 40 40 38 35 33 33 31 30 30 31 31 29 28 26 25 23 21 19 17 15 13 12 10 9 8 8 7 6 6 7 8 10 12
7 5 3 5 5 3 3 4 4 8 5 10 10 5 5 7 6 6 4 2 4 6 5 6 8 8 7 8 10 9 5 1 1 2 2 3 4 5 5 7 9 11 15 19 22 26 29 26 25 27 28 31 35 37 37 37 34 32 32 30 30 31 31 30 29 28 26 24 22 20 19 17 15 13 12 10 9 8 7 6 5 6 8 9 11 13
6 7 5 5 4 4 5 7 8 6 5 8 9 6 7 9 5 5 6 4 4 4 5 5 6 6 7 9 8 7 6 4 3 3 3 3 3 4 5 6 9 12 15 18 21 25 28 27 26 26 27 30 33 34 35 36 36 33 31 31 32 32 31 30 29 28 26 24 22 20 18 16 14 13 11 10 8 7 7 7 6 7 9 10 12 14
10 9 6 5 5 6 7 9 8 4 2 3 2 3 8 9 5 5 7 5 4 5 5 5 6 6 6 7 7 6 5 5 4 4 4 4 4 4 5 6 8 12 14 17 21 24 26 28 29 29 28 28 31 33 34 36 37 36 33 33 34 33 32 31 29 27 26 23 21 20 17 16 14 12 10 9 7 7 7 8 7 8 9 10 12 15
7 7 6 4 4 5 6 8 6 2 1 3 2 1 3 4 3 4 6 5 4 5 5 4 6 6 5 5 6 5 3 4 5 4 4 4 5 4 5 6 8 12 15 18 20 22 24 26 28 29 28 27 29 32 33 34 37 37 36 35 35 34 33 32 30 27 26 23 21 19 17 16 14 12 10 9 8 7 8 8 8 8 8 10 12 14
3 5 5 4 5 5 7 9 7 5 4 6 4 0 1 1 1 2 4 5 5 5 5 5 5 5 5 5 6 5 5 6 7 6 5 5 6 6 6 8 10 13 17 18 20 23 25 25 25 25 26 25 27 30 31 31 32 35 37 37 36 34 33 31 29 27 25 23 22 19 17 16 14 13 11 10 9 8 8 9 8 8 9 11 12 14
2 5 5 5 6 7 6 5 3 2 3 3 4 2 2 3 3 0 2 2 4 4 3 3 4 5 5 5 6 7 6 6 8 8 7 6 7 7 7 9 12 15 17 19 22 25 26 25 24 24 24 24 25 28 29 29 30 33 36 37 35 34 32 30 28 27 25 23 22 20 18 16 15 14 12 11 9 9 9 9 9 9 10 11 12 14
4 5 5 5 5 5 5 1 3 4 2 3 5 5 3 3 4 3 4 4 4 4 3 3 1 2 5 6 6 7 7 7 7 8 8 7 7 7 7 10 14 17 19 22 25 28 28 28 28 28 27 27 28 29 29 28 29 32 35 35 34 33 31 29 28 26 25 23 22 21 19 17 15 14 13 11 10 9 9 9 10 10 10 11 11 11
5 5 3 4 5 7 6 4 4 3 2 5 6 5 4 3 6 6 4 4 3 3 5 4 4 2 2 4 6 7 7 8 8 8 8 7 8 9 12 14 16 17 19 22 24 26 28 29 31 32 31 30 31 31 30 30 30 32 33 33 33 32 31 30 29 27 25 24 22 20 19 17 16 14 13 12 11 10 10 10 10 11 11 10 10 9
5 6 5 6 6 6 6 5 5 4 3 4 4 2 2 3 6 6 4 5 3 3 5 5 3 1 1 2 4 6 6 6 7 9 8 7 9 13 17 20 21 21 22 25 26 25 25 27 29 31 32 32 33 33 32 32 32 33 33 33 33 32 31 30 29 27 26 24 22 20 19 17 16 14 13 12 11 10 11 11 11 10 11 11 9 9
Wind_Direction
172 195 215 209 213 214 211 185 177 212 218 182 173 185 194 179 232 264 282 307 86 144 220 205 217 246 239 244 247 234 208 208 227 228 225 221 202 198 199 203 205 206 214 210 206 205 202 203 204 204 204 204 204 205 205 205 205 204 203 202 203 204 205 206 208 208 208 209 211 213 215 217 219 221 225 230 232 234 238 241 243 244 247 248 247 246
178 200 215 208 203 205 209 195 187 220 237 219 189 190 216 195 210 264 262 312 4 139 242 241 227 256 247 240 253 225 195 214 218 212 222 222 213 206 200 207 209 209 216 205 205 204 200 200 201 201 201 201 202 203 204 206 206 206 205 204 204 204 205 207 208 208 209 210 210 210 212 215 217 219 222 226 230 234 240 243 245 246 247 249 251 250
196 212 212 206 204 207 212 203 200 222 224 214 202 182 211 212 174 286 313 337 13 130 258 322 220 253 256 247 254 222 200 217 212 204 210 209 210 214 206 210 209 205 206 197 201 201 197 196 196 197 199 200 202 203 203 206 206 205 205 206 206 205 206 207 209 210 211 213 212 212 212 213 216 220 223 227 231 235 239 242 244 247 248 250 251 252
197 214 207 203 204 212 226 216 205 218 223 187 171 171 209 208 154 225 284 334 16 115 181 45 314 269 271 267 263 234 209 218 217 212 215 206 203 209 209 207 198 197 201 199 201 196 193 194 193 195 197 198 200 201 201 202 204 204 205 206 206 206 207 207 208 211 213 214 214 216 218 217 218 222 226 229 233 235 236 238 239 242 244 246 250 254
200 196 189 194 207 212 219 229 204 191 231 245 162 159 179 188 172 166 172 96 13 9 87 71 0 298 258 244 256 247 220 224 223 216 225 228 219 218 218 211 202 199 193 190 197 194 189 190 192 195 198 198 198 199 200 201 202 203 205 206 207 207 208 208 209 210 211 211 211 212 214 218 220 222 224 224 226 228 230 232 233 234 237 242 250 257
211 185 170 193 212 208 200 214 202 171 192 279 230 185 173 171 155 119 121 93 47 329 295 108 6 292 282 247 245 249 238 235 223 209 221 229 228 228 224 218 215 211 201 194 193 189 187 189 193 197 199 199 199 201 202 203 203 204 205 206 207 208 209 209 209 209 209 208 207 206 205 208 210 212 215 217 219 220 224 228 230 231 234 240 248 253
203 157 160 192 196 195 188 193 203 168 150 235 260 207 144 138 128 131 138 110 124 233 288 99 165 256 315 298 253 244 225 236 233 221 228 226 220 220 214 213 211 205 204 204 196 187 188 191 192 197 201 201 203 205 205 205 206 206 207 206 207 208 209 209 209 208 208 208 208 207 206 206 206 205 208 213 218 220 224 227 230 232 235 240 244 247
163 152 169 185 174 183 183 191 210 157 136 217 241 121 123 129 140 154 143 123 179 199 335 19 131 222 291 277 271 253 198 244 252 235 239 232 222 219 212 211 207 200 195 191 190 187 192 196 198 201 204 205 207 207 206 207 209 210 210 210 209 209 210 210 209 208 208 207 208 208 208 208 208 208 207 209 213 218 223 225 228 232 235 239 242 244
134 162 180 172 154 177 186 214 211 142 130 231 197 130 136 142 146 148 126 110 107 115 304 307 105 186 267 272 299 325 171 251 251 233 237 230 223 219 216 218 213 208 196 183 189 192 194 199 205 210 211 212 212 210 208 209 210 212 213 213 211 210 210 209 208 208 208 209 209 208 208 208 209 210 210 211 214 216 217 217 218 222 224 227 229 232
216 184 183 161 159 190 187 222 211 148 151 208 141 101 81 79 94 103 110 107 64 82 236 261 210 174 272 280 299 330 223 245 243 240 241 232 229 223 215 209 188 170 156 162 184 191 189 192 198 207 209 211 213 213 212 210 208 209 210 210 210 209 209 208 207 207 208 209 210 209 208 207 208 210 211 210 210 208 206 208 208 206 205 207 212 217
295 291 241 147 161 178 153 130 171 150 148 130 92 69 51 32 39 49 61 92 83 278 249 248 212 163 274 281 244 222 224 219 220 246 255 237 223 209 196 180 165 153 151 158 143 138 151 162 173 182 188 193 199 203 207 207 205 203 203 204 205 206 206 206 206 206 206 207 208 208 207 207 210 210 206 199 195 194 196 199 201 206 212 215 219 225
357 6 317 319 171 145 112 76 19 46 113 100 89 95 75 10 13 21 359 44 132 252 260 258 213 156 221 263 249 248 261 231 205 224 237 221 199 188 178 172 171 167 171 172 155 149 150 155 166 174 177 182 188 193 196 199 200 199 198 198 197 199 201 202 203 203 204 205 206 207 207 209 209 204 199 196 193 191 191 194 202 211 219 223 227 230
4 337 304 331 300 155 119 99 31 13 48 80 110 119 105 31 21 18 299 318 214 244 265 285 284 190 230 254 262 270 275 257 223 218 212 196 190 188 179 174 170 164 170 174 173 177 179 181 184 182 183 187 190 195 197 196 197 197 196 195 194 194 195 198 200 200 201 203 204 207 207 207 204 199 197 197 196 197 199 201 205 204 199 196 189 183
350 308 304 348 308 217 143 144 145 178 128 125 144 138 133 127 82 215 253 285 248 255 279 295 288 254 267 268 251 251 257 249 227 228 208 182 181 185 182 173 161 158 168 175 178 183 196 198 191 184 185 190 193 196 198 197 197 196 194 193 192 191 191 194 195 195 195 195 198 201 200 197 194 191 191 192 194 198 197 189 179 166 158 160 161 164
163 250 257 180 250 250 170 176 158 154 156 170 164 139 150 157 143 190 213 199 222 261 292 300 280 190 202 259 245 245 270 276 210 229 188 164 174 165 161 160 153 155 160 160 162 171 186 186 180 178 179 183 187 189 192 193 193 192 190 189 187 184 184 188 188 187 186 182 181 183 181 179 179 181 184 184 186 187 179 168 162 158 159 165 168 173
154 203 281 280 285 174 182 255 103 123 147 213 147 118 164 179 147 153 182 177 172 165 271 249 240 209 203 273 275 262 321 8 53 43 114 136 155 139 150 170 167 167 162 152 144 142 153 157 160 163 166 171 176 180 186 187 185 184 182 179 177 174 174 177 177 176 175 170 167 170 173 176 176 179 180 175 172 177 177 175 175 175 179 188 197 206
150 213 319 338 345 10 186 258 18 123 170 178 131 163 207 169 121 122 193 171 108 146 245 206 243 289 307 289 292 268 198 283 303 284 163 169 173 158 177 194 186 181 172 160 153 148 140 136 141 147 151 157 161 164 173 179 179 176 171 167 164 162 163 166 167 167 169 169 167 168 173 177 176 174 173 171 172 177 181 183 185 186 183 181 182 172
153 137 324 357 144 292 242 151 34 34 133 122 159 202 194 116 98 114 160 11 59 194 266 217 215 275 287 265 318 12 216 256 259 240 231 224 205 194 205 205 195 186 174 166 156 151 143 133 132 137 142 146 147 147 152 165 172 171 168 167 164 163 164 167 168 168 171 172 169 165 164 165 166 167 169 173 175 176 175 171 166 161 149 135 125 114
134 116 313 334 185 270 336 101 90 354 70 135 182 189 126 141 208 139 154 185 172 216 274 283 237 247 209 221 297 272 222 239 239 225 227 227 211 205 210 204 195 178 164 165 157 151 146 139 135 136 138 139 140 137 137 149 160 163 166 168 166 166 165 165 166 166 166 166 163 161 161 163 165 167 169 169 167 162 155 146 139 132 123 115 111 106
132 129 220 298 278 260 1 102 178 198 339 35 65 92 90 148 178 173 171 160 156 203 249 293 310 257 231 217 208 216 220 221 220 214 218 221 209 201 200 191 187 179 173 173 165 160 147 140 138 137 139 140 140 138 137 144 150 152 155 157 156 157 156 157 159 159 159 160 160 160 161 162 164 164 161 156 152 146 136 130 126 120 114 111 107 102
128 122 167 298 324 181 186 229 187 176 173 135 130 160 184 152 128 159 207 137 129 166 204 232 278 264 251 214 202 220 227 219 212 206 216 223 210 203 199 186 184 182 182 176 161 155 142 135 134 135 138 139 139 139 140 144 147 147 150 152 152 152 153 154 156 157 156 156 157 156 154 154 154 152 148 143 139 133 127 123 119 115 112 108 104 99
131 113 136 148 212 192 232 260 213 195 187 168 175 183 185 170 125 143 239 224 146 167 178 176 237 268 258 213 214 230 229 229 222 206 214 223 208 204 200 190 188 183 181 174 156 149 142 137 135 135 136 138 138 139 140 143 146 147 149 151 152 153 153 153 154 154 153 152 152 150 147 147 145 142 139 135 130 125 121 118 114 112 111 106 101 98
117 101 111 133 198 212 259 273 260 256 203 145 200 191 172 163 133 151 207 228 207 207 160 141 226 268 262 228 231 242 236 251 248 213 215 225 208 199 195 189 188 177 166 159 148 146 146 144 141 138 137 138 137 137 139 142 145 146 147 149 151 150 150 151 151 150 150 148 146 143 142 140 138 136 133 129 125 121 118 115 112 111 108 104 101 97
108 102 107 86 313 303 307 312 315 305 107 152 234 190 156 176 157 159 179 170 173 198 164 163 247 266 273 261 252 260 265 282 279 220 202 208 205 195 188 183 178 163 149 149 150 148 148 145 142 139 139 139 138 139 140 141 143 144 145 147 148 147 147 150 149 148 147 144 140 138 137 134 133 132 129 125 122 120 117 115 113 111 106 103 100 94
138 133 123 108 80 359 338 321 293 254 190 207 236 185 145 135 123 138 148 120 190 215 171 174 237 252 268 295 305 301 312 317 297 259 199 190 195 192 184 177 172 160 151 154 151 146 147 147 146 146 144 143 142 141 141 141 142 143 144 146 147 146 147 148 148 146 144 141 137 135 134 132 132 130 126 124 122 119 118 115 113 110 105 102 98 93
148 160 147 136 154 181 194 210 211 183 181 224 209 165 164 158 154 165 160 151 229 238 164 173 235 251 275 316 328 317 313 298 279 275 261 223 200 190 183 177 171 164 161 160 154 152 155 155 154 152 148 146 145 143 142 142 142 142 142 145 147 147 147 147 147 145 142 139 136 133 132 131 130 128 125 124 121 119 118 115 112 109 105 100 95 90
119 175 182 168 183 190 178 176 149 133 147 199 198 175 180 189 174 158 145 181 206 221 200 216 241 255 263 273 290 292 272 256 262 267 266 249 217 199 189 176 168 162 161 160 158 160 162 161 160 154 149 148 146 145 145 144 144 144 143 144 147 148 147 146 146 143 140 138 135 132 131 130 129 127 125 123 121 119 118 115 112 108 102 98 92 86
117 203 204 187 201 189 145 147 153 144 160 191 192 186 190 192 171 165 198 211 190 193 239 240 233 246 253 239 230 249 247 241 247 239 236 230 207 196 177 161 161 160 160 166 171 173 170 165 162 155 151 149 148 147 148 147 148 147 146 146 148 149 148 147 146 142 139 137 134 132 131 130 128 127 125 124 122 120 118 115 111 106 101 96 89 82
137 203 207 192 209 189 139 150 160 156 170 183 188 193 194 188 177 186 213 217 190 192 232 233 222 233 248 235 216 225 223 221 231 224 208 181 173 176 170 169 174 173 176 183 184 181 175 170 166 159 154 152 151 151 151 151 151 150 148 148 150 150 149 148 145 141 139 137 134 132 132 131 130 129 127 126 124 120 117 113 108 104 99 92 83 76
153 203 193 175 199 201 168 170 168 165 173 180 191 196 191 187 190 199 215 219 210 211 228 234 232 241 248 235 216 224 221 220 228 169 152 175 187 183 180 183 186 187 190 192 189 184 179 174 168 162 158 157 157 157 156 155 154 152 150 150 151 150 149 148 145 141 139 137 134 134 134 133 132 131 130 128 124 120 116 112 108 102 95 88 80 72
173 205 161 146 175 218 205 190 178 172 178 190 204 203 193 192 199 208 217 220 217 225 240 250 258 260 254 216 203 238 227 180 141 158 191 205 194 179 184 193 195 197 200 197 189 183 178 172 169 166 165 166 165 163 161 159 156 154 152 153 153 151 150 149 145 142 141 138 136 137 137 135 134 133 130 127 123 120 115 111 106 100 92 84 76 67
154 171 111 121 166 229 214 186 172 127 107 182 231 216 201 196 202 210 214 214 207 219 240 251 251 255 248 143 205 239 200 160 194 209 219 223 193 181 190 197 201 204 202 196 189 184 181 178 176 176 174 172 170 167 164 161 157 156 155 155 154 152 151 150 147 144 142 139 139 140 139 137 136 132 129 126 123 119 114 110 105 98 89 80 72 63
143 146 138 140 176 238 212 163 144 67 55 248 235 216 204 200 204 210 218 222 210 205 218 229 237 246 207 141 235 242 178 177 219 217 217 225 208 197 199 200 205 208 202 195 192 189 187 185 184 182 178 175 173 171 167 163 160 159 158 156 155 153 152 150 147 145 143 141 142 141 139 138 136 132 128 125 122 118 113 109 103 95 84 75 67 56
142 147 161 160 178 231 138 117 100 98 216 235 232 198 194 197 196 202 218 223 214 208 218 233 247 251 175 177 234 240 195 197 220 218 219 219 203 201 210 213 215 213 205 200 195 191 188 185 184 182 179 176 174 171 168 165 162 160 158 156 155 154 152 150 148 145 144 143 142 141 139 138 135 131 128 125 121 118 114 107 99 90 80 69 59 49
155 150 157 166 163 165 124 108 121 208 225 239 158 148 186 195 194 205 224 228 219 216 230 247 259 252 210 198 229 240 227 219 225 232 235 224 197 192 203 214 217 213 208 202 195 192 188 182 179 179 178 176 174 170 168 167 162 158 157 157 155 154 153 150 148 146 145 144 142 141 140 137 133 130 127 125 122 117 112 104 95 85 74 60 50 43
157 154 150 160 146 135 137 145 182 231 258 292 275 194 189 189 190 207 242 252 231 210 219 238 248 246 233 222 234 245 246 242 246 250 243 229 211 196 198 210 214 210 206 201 195 193 189 186 182 179 177 174 171 170 168 166 162 157 156 156 155 154 153 151 149 147 146 145 143 142 140 137 134 131 126 125 122 116 109 100 90 80 69 57 47 39
150 151 151 181 177 144 151 188 230 303 308 269 243 213 175 170 177 186 231 254 234 208 211 227 241 248 242 225 232 244 253 273 280 267 244 224 213 207 209 214 210 207 209 206 202 198 191 186 182 176 173 169 169 169 167 164 162 157 155 156 155 154 154 153 150 149 148 147 145 143 140 137 135 132 129 127 123 115 105 95 85 74 62 53 42 34
156 163 163 182 199 115 116 164 281 277 255 244 225 168 159 162 159 157 193 250 244 219 213 223 239 249 241 214 213 212 188 245 262 260 241 216 210 210 217 224 222 217 213 200 189 183 180 178 175 172 170 167 167 169 167 164 162 158 155 156 157 156 156 154 153 152 150 148 146 144 140 138 137 134 132 130 123 112 101 91 82 69 55 48 38 30
121 129 143 161 193 140 141 182 188 210 245 240 158 146 167 151 130 125 167 255 252 210 194 210 231 241 233 199 192 176 161 225 251 254 230 210 213 215 218 229 235 221 207 192 180 173 171 170 169 167 167 166 167 170 169 166 164 160 157 159 159 158 157 156 155 154 152 149 147 144 141 139 139 137 135 130 120 110 101 90 80 66 50 42 36 28
83 78 141 173 205 183 170 204 213 229 252 225 164 177 176 141 122 118 187 254 235 157 174 202 219 233 220 188 182 178 188 224 246 255 227 201 201 207 210 216 204 180 176 177 176 172 167 165 164 164 167 170 170 170 169 167 164 162 159 160 160 158 158 158 156 155 152 149 147 145 143 141 140 138 135 130 119 110 102 89 77 66 49 37 31 26
96 139 169 190 204 190 179 207 245 257 245 209 183 183 156 130 124 153 208 228 179 166 193 197 200 222 216 184 178 199 215 227 241 268 240 161 145 141 139 144 150 158 161 163 165 165 163 165 168 169 171 172 170 169 169 167 164 162 160 160 160 160 159 158 156 154 152 149 148 146 144 142 141 139 135 129 120 112 102 86 72 59 44 33 28 25
171 152 151 186 190 192 180 182 250 271 235 171 155 164 151 142 168 206 209 187 159 187 210 192 194 214 209 184 194 214 225 236 196 122 127 133 139 134 116 116 120 128 144 153 159 162 160 162 166 167 168 170 169 169 170 168 164 161 160 159 160 160 159 157 155 153 152 150 149 148 145 143 141 139 135 130 121 110 98 86 73 56 43 35 29 25
169 155 186 197 177 165 167 171 220 258 223 142 126 132 180 191 205 206 192 190 198 196 192 196 207 210 192 194 214 222 219 220 189 171 139 120 131 132 136 140 137 138 144 150 158 163 160 158 160 163 165 168 169 170 170 168 163 160 159 159 159 160 159 157 156 155 153 152 150 148 146 144 143 141 136 129 121 113 102 92 77 60 49 40 31 24
177 171 189 209 185 154 176 200 214 228 203 157 144 158 201 205 193 158 161 193 233 212 180 192 213 206 188 193 208 212 199 195 208 191 144 127 132 131 137 144 144 147 151 153 159 163 160 156 156 158 161 166 169 171 172 170 163 158 159 160 160 160 159 158 158 157 155 154 152 149 147 146 145 143 135 128 127 124 112 98 80 65 55 43 31 24
203 191 171 182 190 176 192 215 217 205 207 207 177 179 199 198 180 151 156 168 212 213 182 175 197 204 193 179 177 188 197 195 189 169 145 149 152 140 141 147 149 151 152 153 157 162 162 158 156 155 158 165 170 172 174 173 167 161 161 162 162 162 161 160 160 159 157 154 152 150 150 149 145 139 135 134 136 128 110 96 81 67 56 44 32 26
208 182 141 145 197 219 239 235 216 166 292 238 232 254 211 190 154 139 146 153 189 195 170 161 181 191 184 160 154 169 192 173 154 144 138 145 148 140 137 140 147 152 152 152 157 161 160 156 155 155 155 161 169 173 175 176 172 167 165 165 164 164 164 163 162 160 157 155 153 152 152 149 143 140 141 142 137 124 107 91 78 67 56 46 37 31
231 171 148 154 178 200 236 238 217 201 214 211 202 206 32 149 170 153 153 166 177 170 166 176 178 170 162 146 140 153 169 153 144 152 159 154 158 164 159 154 157 160 159 158 159 160 157 154 154 156 155 158 167 173 175 176 174 171 168 167 166 166 166 165 163 161 158 156 155 155 154 149 147 148 148 144 134 121 106 91 81 69 58 50 40 33
190 162 173 187 184 195 224 241 215 178 183 188 187 178 165 191 207 78 83 144 152 141 148 166 158 155 164 164 151 152 164 167 163 166 173 175 175 175 171 167 164 161 160 161 162 161 159 158 158 159 159 160 166 173 176 176 174 172 169 168 168 168 167 165 163 161 159 159 158 157 155 154 156 155 150 143 134 122 108 96 87 76 64 53 42 34
143 155 180 179 192 234 259 291 69 67 39 261 237 228 228 195 161 101 59 73 96 100 89 64 59 167 179 182 165 146 156 186 187 171 171 180 179 174 172 171 166 163 163 165 167 167 166 165 165 165 165 167 171 174 176 177 175 172 170 169 169 169 167 165 164 163 162 162 160 158 158 160 160 156 148 140 130 117 105 95 89 83 74 63 52 45
145 167 173 157 194 236 238 195 160 145 214 246 237 234 249 203 141 117 100 100 109 133 125 88 37 19 151 178 174 155 162 188 191 176 175 182 181 175 172 167 165 167 168 168 169 172 173 172 171 170 170 172 175 176 177 177 175 173 172 171 170 171 170 167 165 164 164 164 162 162 163 164 160 154 148 140 131 118 104 94 89 85 80 71 65 66
176 181 172 168 196 224 220 195 173 149 173 229 230 240 264 180 136 130 159 171 180 193 160 130 103 81 230 235 206 175 174 186 182 176 179 187 186 181 175 172 172 173 173 172 172 174 175 176 175 174 174 174 176 177 177 177 175 174 174 173 173 174 173 171 168 166 166 166 166 167 167 166 162 157 150 142 134 123 111 102 95 85 79 79 81 83